This is the latest recevied weather packets stored in our database for station/object M0TJX-1. If no packets are shown the sender has not sent any weather packets the latest 10 day(s).
| Time | Temp. | Humidity | Pressure | Rain* | Wind** | Luminosity | Snow |
|---|---|---|---|---|---|---|---|
| 1777377507 | 10.56° C | 83% | 1026 hPa | 0 mm | - | - | - |
| 1777376607 | 10.56° C | 80% | 1026 hPa | 0 mm | - | - | - |
| 1777375707 | 11.11° C | 80% | 1025.8 hPa | 0 mm | - | - | - |
| 1777374807 | 10.56° C | 81% | 1025.7 hPa | 0 mm | - | - | - |
| 1777373907 | 10° C | 82% | 1025.6 hPa | 0 mm | - | - | - |
| 1777373007 | 10° C | 82% | 1025.6 hPa | 0 mm | - | - | - |
| 1777372107 | 10° C | 82% | 1025.6 hPa | 0 mm | - | - | - |
| 1777371207 | 10.56° C | 80% | 1025.7 hPa | 0 mm | - | - | - |
| 1777370307 | 10.56° C | 79% | 1025.6 hPa | 0 mm | - | - | - |
| 1777369407 | 10.56° C | 77% | 1025.5 hPa | 0 mm | - | - | - |
| 1777368507 | 10.56° C | 76% | 1025.6 hPa | 0 mm | - | - | - |
| 1777367607 | 10° C | 76% | 1025.6 hPa | 0 mm | - | - | - |
| 1777366707 | 10° C | 76% | 1025.6 hPa | 0 mm | - | - | - |
| 1777365807 | 10.56° C | 78% | 1025.6 hPa | 0 mm | - | - | - |
| 1777364907 | 10° C | 80% | 1025.4 hPa | 0 mm | - | - | - |
| 1777364007 | 10° C | 82% | 1025.3 hPa | 0 mm | - | - | - |
| 1777363107 | 9.44° C | 84% | 1025.5 hPa | 0 mm | - | - | - |
| 1777362207 | 10° C | 84% | 1025.2 hPa | 0 mm | - | - | - |
| 1777361307 | 9.44° C | 85% | 1025.1 hPa | 0 mm | - | - | - |
| 1777360407 | 8.89° C | 87% | 1025 hPa | 0 mm | - | - | - |
| 1777359507 | 8.89° C | 90% | 1025 hPa | 0 mm | - | - | - |
| 1777358607 | 8.89° C | 89% | 1024.8 hPa | 0 mm | - | - | - |
| 1777357707 | 8.89° C | 88% | 1024.8 hPa | 0 mm | - | - | - |
| 1777356807 | 8.89° C | 88% | 1024.8 hPa | 0 mm | - | - | - |
| 1777355907 | 8.89° C | 86% | 1024.6 hPa | 0 mm | - | - | - |
* Rain latest hour (hover to see other rain measurements)
** Current wind speed in m/s (hover to see current wind gust speed)